Regional Weather Roundup
Issued by NWS Upton, NY

Current Version | Previous Version | Graphics & Text | Print | Product List | Glossary On
Versions: 1 2 3 4 5 6 7 8 9 10 11 12 13 14 15 16 17 18 19 20 21 22 23 24 25 26 27 28 29 30 31 32 33 34 35 36 37 38 39 40 41 42 43 44 45 46 47 48 49 50
000
ASUS41 KOKX 250309
RWROKX

REGIONAL WEATHER ROUNDUP
NATIONAL WEATHER SERVICE NEW YORK NY
1100 PM EDT SAT JUN 24 2017

NOTE: "FAIR" INDICATES FEW OR NO CLOUDS BELOW 12,000 FEET WITH NO
SIGNIFICANT WEATHER AND/OR OBSTRUCTIONS TO VISIBILITY.

NYZ071-072-176-178-NJZ106-104-250400-
NEW YORK CITY METRO AREA

CITY           SKY/WX    TMP DP  RH WIND       PRES   REMARKS
Central Park   CLEAR     79  58  48 VRB5      29.91R
Bronx Bot Gard   N/A     79  57  47 SW6       29.90F
LaGuardia APRT PTCLDY    82  59  45 W10G18    29.88R
Kennedy INTL   PTCLDY    77  65  66 SW12      29.89R
Breezy Point     N/A     70 N/A N/A W6          N/A
Newark/Liberty PTCLDY    79  59  50 SW12      29.89R
Teterboro      CLEAR     78  59  51 W8        29.88R
$$

NYZ177-179-078>081-250400-
LONG ISLAND NEW YORK

CITY           SKY/WX    TMP DP  RH WIND       PRES   REMARKS
Jones Beach      N/A     68 N/A N/A W8          N/A
Matinecock PT  NOT AVBL
Farmingdale    NOT AVBL
MacArthur/ISP  PTCLDY    72  61  68 SW6       29.88R
Shirley        PTCLDY    73  63  70 SW6       29.89R
Mt Sinai Harb    N/A    N/A N/A N/A SW5         N/A
Westhampton    CLEAR     63  57  81 CALM      29.90R
East Hampton   FAIR      63  58  83 CALM      29.88R
Montauk          N/A     74  56  53 SW3       29.88R
$$

NYZ052-065-067-250400-
HUDSON VALLEY

CITY           SKY/WX    TMP DP  RH WIND       PRES   REMARKS
White Plains   NOT AVBL
Larchmont Harb   N/A     79 N/A N/A SW15G21     N/A
Croton O-T Hud   N/A     77 N/A N/A SW10        N/A
Newburgh       PTCLDY    70  63  78 W12       29.93R
Montgomery     CLOUDY    71  59  65 NW6       29.91R
Poughkeepsie   LGT RAIN  68  63  84 NW5       29.90R
Albany         MOCLDY    68  57  68 W6        29.89R
$$

NJZ001-105-106-008-010-013-015-019>022-104-250400-
NEW JERSEY

CITY           SKY/WX    TMP DP  RH WIND       PRES   REMARKS
Newark/Liberty PTCLDY    79  59  50 SW12      29.89R
Teterboro      CLEAR     78  59  51 W8        29.88R
Caldwell       CLEAR     76  59  55 VRB3      29.90R
Somerville     CLEAR     67  64  90 CALM      29.89R
Linden         FAIR      78  58  49 W6        29.90R
Perth Amboy      N/A     77 N/A N/A SW9         N/A
Sussex         PTCLDY    72  59  63 N7        29.93R
Andover          N/A     71  59  65 N3        29.94R
Trenton        CLEAR     76  60  57 W6        29.91R
Millville      MOCLDY    67  66  97 W3        29.94R
Atlantic City  PTCLDY    76  64  66 SW5       29.94R
Wrightstown    NOT AVBL
Toms River     CLOUDY    71  62  73 W5        29.93R
Belmar         PTCLDY    73  61  65 SW7       29.93R
$$

PAZ047>061-062-071-250400-
EASTERN PENNSYLVANIA

CITY           SKY/WX    TMP DP  RH WIND       PRES   REMARKS
Philadelphia   PTCLDY    78  60  53 W10       29.93R
Allentown      CLEAR     72  59  63 W3        29.92R
Scranton       LGT RAIN  65  63  93 CALM      29.96R
$$

CTZ002-004>006-009-010-012-RIZ004-006-007-MAZ004-011-015-250400-
SOUTHERN NEW ENGLAND
 IN CT

CITY           SKY/WX    TMP DP  RH WIND       PRES   REMARKS
Bradley INTL   MOCLDY    70  58  65 NW10      29.87R
Hartford       PTCLDY    69  61  75 CALM      29.85R
Danbury        MOCLDY    73  58  59 W6        29.89R
Wtrbury/Oxford MOCLDY    72  54  53 CALM      29.90R
Bridgeport     CLEAR     71  62  73 SW5       29.87R
Meriden        CLEAR     65  61  87 CALM      29.86R
New Haven      NOT AVBL
Chester        FAIR      72  57  60 CALM      29.88R
Groton         PTCLDY    71  60  68 W5        29.86R
Wilimantic     CLEAR     67  61  81 CALM      29.87R

 IN RI

CITY           SKY/WX    TMP DP  RH WIND       PRES   REMARKS
Providence     CLEAR     70  57  63 W5        29.86R
Block Island   PTCLDY    71  58  63 SW10      29.88R
Westerly       PTCLDY    70  62  76 CALM      29.87R
 IN MA

CITY           SKY/WX    TMP DP  RH WIND       PRES   REMARKS
Boston         CLEAR     77  52  41 W14       29.82R
Worcester      CLEAR     67  50  54 W9        29.88R
Westfield      CLOUDY    67  62  84 VRB5      29.84S
Provincetown   CLEAR     69  60  73 W10       29.83R
Nantucket      CLEAR     66  60  81 W12       29.85R
$$

ANZ330-335-338-340-345-350-353-355-250400-
COASTAL MARINE OBSERVATIONS


STATION/POSITION TIME  SKY/WX   TEMP    WIND        PRES    VSBY  WAVE
                                AIR SEA DIR/SP/G                  HT/PER
                 (UTC)          (F)     (DEG/KT/KT) (MB)    (MI)  (FT/S)
NY HARB ENTRANCE 0250            71 67  230/  8/  8 1012.1          4/ 8
20 S FIRE ISLAND 0250            70 69  220/  8/  8 1011.8          6/ 9
GREAT SOUTH BAY  0230            75 76  250/ 12/ 14   N/A
23 SSW MONTAUK P 0150            68 64              1011.5          7/ 9
15 E BARNEGAT LI 0230               65                N/A           5/ 8
HUDSON CANYON    0250            68 66  210/  6/  8 1013.0          6/ 8
KINGS POINT      0224            79 66  290/  9/ 11 1011.7
EXECUTION ROCKS  0230            75     220/ 10/ 16   N/A
CENTRAL LI SOUND 0215            73     230/  6/  8   N/A           1
EASTERN LI SOUND NOT AVBL
ROBBINS REEF     0230                   250/ 12/ 14 1012.7
$$


>>>>>>>>>>>>>>>>>>>>>>>>>>>> KEY <<<<<<<<<<<<<<<<<<<<<<<<<<<
>                                                          <
>     SKY/WX - Sky Condition/Present Weather               <
>     TMP    - Temperature in Fahrenheit                   <
>     DP     - Dew Point in Fahrenheit                     <
>     RH     - Relative Humidity in Percent                <
>     WIND   - Direction (from) and Speed in MPH           <
>     PRES   - Mean Sea Level Pressure (inches of Hg)      <
>     WCI    - Wind Chill Index                            <
>     VSB    - VISIBILITY IN MILES                         <
>     HX     - HEAT INDEX                                  <
>     TC     - TEMPERATURE IN CELSIUS                      <
>     VRB    - VARIABLE WIND DIRECTION                     <
>                                                          <
>>>>>>>>>>>>>>>>>>>>>>>>>>>> KEY <<<<<<<<<<<<<<<<<<<<<<<<<<<



USA.gov is the U.S. government's official web portal to all federal, state and local government web resources and services.